Regional Weather Roundup
Issued by NWS San Angelo, TX

Home | Current Version | Previous Version | Text Only | Print | Product List | Glossary On
Versions: 1 2 3 4 5 6 7 8 9 10 11 12 13 14 15 16 17 18 19 20 21 22 23 24 25 26 27 28 29 30 31 32 33 34 35 36 37 38 39 40 41 42 43 44 45 46 47 48 49 50
000
ASUS44 KSJT 260110
RWRSJT
WEST CENTRAL TEXAS REGIONAL WEATHER ROUNDUP
NATIONAL WEATHER SERVICE SAN ANGELO TX
700 PM CST THU DEC 25 2014

NOTE: "FAIR" INDICATES FEW OR NO CLOUDS BELOW 12,000 FEET WITH NO
SIGNIFICANT WEATHER AND/OR OBSTRUCTIONS TO VISIBILITY.

TXZ049-054-064>066-071>073-076>078-098-099-113-114-127-128-139-140-
154-155-168>170-260200
...LOCATIONS ACROSS WEST CENTRAL TEXAS...

CITY           SKY/WX    TMP DP  RH WIND       PRES   REMARKS
SAN ANGELO     CLOUDY    57  25  29 S12G18    29.82R
ABILENE        MOCLDY    56  25  30 S15       29.82R
DYESS AFB      MOCLDY    56  27  32 S18G25    29.79S
JUNCTION       CLOUDY    55  24  30 SE5       29.90R
SWEETWATER     CLOUDY    56  23  27 S18       29.81R
BROWNWOOD      CLOUDY    55  27  33 SE13      29.87S
COLEMAN        CLOUDY    54  31  42 S13       29.86R
SONORA         CLOUDY    55  23  28 S12       29.91S
OZONA          FAIR      54  23  30 S10       29.87S
BRADY          CLEAR     57  28  33 SE13      29.87S
$$

TEXAS PANHANDLE/OKLAHOMA PANHANDLE

CITY           SKY/WX    TMP DP  RH WIND       PRES   REMARKS
AMARILLO       CLOUDY    43  19  38 S12       29.69S WCI  37
BORGER         MOCLDY    50  18  28 S14       29.67R
CANADIAN       CLOUDY    54  20  27 S14G22    29.67R
DALHART        PTCLDY    35  13  40 S15       29.65R WCI  25
DUMAS          PTCLDY    39  15  38 S10       29.65R WCI  32
GUYMON         NOT AVBL
HEREFORD       PTCLDY    42  22  43 SW6       29.69S WCI  39
PAMPA          CLOUDY    46  19  34 S9        29.69R
PERRYTON       MOCLDY    48  20  32 S14       29.64R
$$

SOUTHERN PANHANDLE/SOUTH PLAINS/ROLLING PLAINS

CITY           SKY/WX    TMP DP  RH WIND       PRES   REMARKS
LUBBOCK        CLOUDY    51  25  36 S10       29.73R
SNYDER         CLOUDY    51  26  38 SE7       29.79R
CHILDRESS      CLOUDY    55  23  28 S14       29.73S
SEMINOLE       MOCLDY    48  28  46 S9        29.75S
$$

PERMIAN BASIN

CITY           SKY/WX    TMP DP  RH WIND       PRES   REMARKS
MIDLAND        MOCLDY    51  24  34 S15       29.76R
ODESSA         MOCLDY    51  22  31 S12       29.77R
WINK           CLOUDY    55  26  32 SE14      29.71R
$$

FAR WEST/SOUTHWEST MOUNTAINS/TRANS PECOS

CITY           SKY/WX    TMP DP  RH WIND       PRES   REMARKS
ALPINE         CLOUDY    55  17  22 SW15      29.87R
DRYDEN           N/A     49  25  39 CALM      29.82F
EL PASO        MOCLDY    63  17  17 SW24G30   29.69R
FORT STOCKTON  CLOUDY    53  26  35 E9        29.76R
GUADALUPE PASS NOT AVBL
MARFA          CLOUDY    48  18  29 SE7       29.86R
PECOS          MOCLDY    58  25  28 CALM      29.71R
$$

DALLAS/FORT WORTH METROPLEX

CITY           SKY/WX    TMP DP  RH WIND       PRES   REMARKS
DFW AIRPORT    PTCLDY    55  32  41 S15       29.91F
FTW MEACHAM    PTCLDY    56  31  38 S16       29.90S
DAL-EXECUTIVE  CLEAR     57  32  38 S12       29.92F
GRAND PRAIRIE  NOT AVBL
ADDISON        PTCLDY    57  30  35 S13G24    29.94S
MESQUITE       CLEAR     55  32  41 SE9       29.96R
LANCASTER      CLEAR     53  33  47 S8        29.96S
$$

NORTH CENTRAL TEXAS

CITY           SKY/WX    TMP DP  RH WIND       PRES   REMARKS
SHRMAN/DENISON MOCLDY    53  33  47 S14       29.92S
GAINESVILLE    MOCLDY    53  29  39 S15G22    29.90S
BRIDGEPORT     MOCLDY    53  31  43 SE6       29.90R
DENTON         PTCLDY    54  29  38 S15       29.90S
WAXAHACHIE     CLEAR     53  36  53 S9        29.96R
GRANBURY       PTCLDY    55  31  41 SE7       29.91S
$$

WESTERN NORTH TEXAS

CITY           SKY/WX    TMP DP  RH WIND       PRES   REMARKS
WICHITA FALLS  MOCLDY    52  28  39 S14       29.80R
VERNON         CLOUDY    53  23  31 S10       29.79R
BRECKENRIDGE   CLOUDY    59  24  26 S17G23    29.83R
COMANCHE       MOCLDY    53  31  42 S13       29.88S
$$

CENTRAL AND SOUTH CENTRAL TEXAS

CITY           SKY/WX    TMP DP  RH WIND       PRES   REMARKS
AUSTIN/BERGSTM MOCLDY    49  35  58 S7        29.97R
WACO           CLEAR     54  38  54 S15       29.96R
HILLSBORO      CLEAR     54  35  49 SE14      29.95S
TEMPLE         PTCLDY    54  32  43 SE13      29.95R
KILLEEN-GRAY   CLEAR     52  31  45 S10       29.95R
FORT HOOD      CLEAR     55  30  37 S13       29.94R
GEORGETOWN     CLEAR     57  30  35 S8        29.95R
LAGO VISTA     FAIR      55  32  40 S8        29.95S
SAN MARCOS     CLEAR     55  36  47 S12       29.97S
NEW BRAUNFELS  MOCLDY    54  38  54 S10       29.96R
RANDOLPH AFB   MOCLDY    53  37  53 SE9       29.96S
SAN ANTONIO    PTCLDY    56  35  45 SE12      29.96S
STINSON        MOCLDY    57  37  47 SE10      29.95S
PLEASANTON     NOT AVBL
LA GRANGE      PTCLDY    57  47  70 S6        29.99S
GIDDINGS       PTCLDY    56  44  63 S8        30.03R
$$

EAST TEXAS

CITY           SKY/WX    TMP DP  RH WIND       PRES   REMARKS
PARIS          CLEAR     48  30  49 SE10      29.98S
CLARKSVILLE    NOT AVBL
TYLER          PTCLDY    56  38  50 S14       30.00R
LONGVIEW       PTCLDY    50  39  66 SE8       30.02R
PALESTINE      MOCLDY    55  39  53 SE6       30.02R
NACOGDOCHES      N/A    N/A N/A N/A MISG        N/A
$$

TEXAS HILL COUNTRY AND EDWARDS PLATEAU

CITY           SKY/WX    TMP DP  RH WIND       PRES   REMARKS
LLANO          PTCLDY    54  30  40 S7        29.96S
HORSESHOE BAY  FAIR      54  28  36 S7        29.94R
KERRVILLE      PTCLDY    51  31  46 SE8       29.94R
FREDERICKSBRG  CLEAR     52  27  38 S8        29.93R
ROCKSPRINGS    MOCLDY    54  28  37 S15       29.91S
HONDO          CLEAR     55  32  41 SE9       29.95S
UVALDE         CLEAR     55  31  39 SE7       29.93R
DEL RIO        MOCLDY    61  30  31 E12       29.86S
$$

SOUTHEAST TEXAS

CITY           SKY/WX    TMP DP  RH WIND       PRES   REMARKS
COLLEGE STN    PTCLDY    56  43  61 S10       30.01S
CALDWELL       PTCLDY    54  45  71 SE9       30.02S
CROCKETT       MOCLDY    57  48  72 S8G17     30.05S
BRENHAM        PTCLDY    58  47  65 S8        30.02S
HUNTSVILLE     MOCLDY    57  44  62 S7        30.02S
CONROE         MOCLDY    55  44  66 SE9       30.05S
HOUSTON BUSH   MOCLDY    57  46  66 SE8       30.05F
HOUSTON HOBBY  MOCLDY    56  47  71 SE3       30.05F
PERLAND        MOCLDY    57  48  72 SE5       30.07S
WHARTON        MOCLDY    54  48  82 SE7       30.04R
$$

THE UPPER TEXAS COAST

CITY           SKY/WX    TMP DP  RH WIND       PRES   REMARKS
ORANGE         MOCLDY    53  49  87 E8        30.13S
PORT ARTHUR    MOCLDY    55  47  74 SE9       30.09F
GALVESTON      MOCLDY    60  51  72 SE14      30.07F
ANGLETON       MOCLDY    57  49  74 SE9       30.05S
BAY CITY         N/A     57  52  84 SE7       30.04S
$$

TEXAS COASTAL BEND, RIO GRANDE PLAINS DEEP SOUTH TEXAS

CITY           SKY/WX    TMP DP  RH WIND       PRES   REMARKS
VICTORIA       MOCLDY    54  48  80 SE8       30.01S
BEEVILLE       FAIR      56  48  72 SE7       29.99R
ROCKPORT       MOCLDY    62  53  72 SE9       30.01R
PORT ARANSAS   MOCLDY    63  54  73 S14       30.00S
PORT LAVACA    MOCLDY    57  51  80 SE8       30.02S
CORPUS CHRISTI MOCLDY    60  50  69 SE13      29.99S
KINGSVILLE NAS PTCLDY    60  52  74 SE13      29.99S
COTULLA        MOCLDY    60  38  43 SE10      29.94R
LAREDO         CLEAR     61  39  44 SE13      29.95R
BROWNSVILLE    CLOUDY    65  53  65 SE13      30.00S
PORT ISABEL    CLOUDY    63  52  67 SE14      30.00R
HEBBRONVILLE   MOCLDY    60  44  56 SE15G21   29.96S
MCALLEN        MOCLDY    62  53  72 SE12      29.98R
WESLACO        MOCLDY    63  51  65 SE9       29.98S
FALFURRIAS     MOCLDY    60  47  62 SE6       29.98R
EDINBURG       MOCLDY    64  51  62 SE8       29.98S
$$


USA.gov is the U.S. government's official web portal to all federal, state and local government web resources and services.